Fredericksburg, VA

1:35 AM EDT on July 22, 2017 (GMT -0400)
Shannon

Weather History for KEZF - February, 2013

Change the Weather History Date:

Tuesday, February 19, 2013

  Actual Average (KNYG) Record (KNYG)
Temperature  
Mean Temperature 41 °F -  
Max Temperature 47 °F 46 °F 73 °F (2017)
Min Temperature 35 °F 29 °F 9 °F (2015)
Degree Days  
Heating Degree Days 24    
Moisture  
Dew Point 32 °F    
Average Humidity 68    
Maximum Humidity 97    
Minimum Humidity 45    
Precipitation  
Precipitation 0.03 in - - ()
Sea Level Pressure  
Sea Level Pressure 29.94 in    
Wind  
Wind Speed 9 mph (SSW)    
Max Wind Speed 16 mph    
Max Gust Speed 24 mph    
Visibility 10 miles    
Events Rain    
Averages and records for this station are not official NWS values.
T = Trace of Precipitation, MM = Missing Value Source: NWS Daily Summary

Daily Weather History Graph

Daily Weather History Graph

Search for Another Location

Airport or City:

Trip Planner

Search our weather history database for the weather conditions in past years. The results will help you decide how hot, cold, wet, or windy it might be!

Date:

Astronomy

Feb. 19, 2013 Rise Set
Actual Time 6:54 AM EST 5:52 PM EST
Civil Twilight 6:28 AM EST 6:19 PM EST
Nautical Twilight 5:57 AM EST 6:50 PM EST
Astronomical Twilight 5:26 AM EST 7:21 PM EST
Moon 12:25 PM EST (2/19) 2:22 AM EST (2/19)
Length of Visible Light 11h 51m
Length of Day
10h 57m
Waxing Gibbous, 67% of the Moon is Illuminated
Feb 19
Waxing Gibbous
Feb 25
Full
Mar 4
Last Quarter
Mar 11
New
Mar 19
First Quarter

Hourly Weather History & Observations

Time (EST) Temp. Windchill Dew Point Humidity Pressure Visibility Wind Dir Wind Speed Gust Speed Precip Events Conditions
12:15 AM 39.7 °F 35.6 °F 20.1 °F 45% 30.16 in 10.0 mi South 5.8 mph - N/A   Clear
12:35 AM 39.2 °F 35.0 °F 20.5 °F 47% 30.14 in 10.0 mi South 5.8 mph - N/A   Clear
12:55 AM 39.6 °F 33.5 °F 20.8 °F 47% 30.14 in 10.0 mi South 9.2 mph - N/A   Clear
1:15 AM 39.2 °F 35.0 °F 20.8 °F 48% 30.13 in 10.0 mi South 5.8 mph - N/A   Clear
1:35 AM 37.9 °F 33.5 °F 20.8 °F 50% 30.14 in 10.0 mi South 5.8 mph - N/A   Clear
1:55 AM 39.2 °F 33.0 °F 21.2 °F 49% 30.14 in 10.0 mi SSW 9.2 mph - N/A   Clear
2:15 AM 40.3 °F 33.4 °F 21.2 °F 47% 30.14 in 10.0 mi SSW 11.5 mph - N/A   Clear
2:35 AM 41.0 °F 35.2 °F 21.7 °F 46% 30.13 in 10.0 mi SSW 9.2 mph - N/A   Clear
2:55 AM 40.5 °F 35.1 °F 22.1 °F 48% 30.11 in 10.0 mi South 8.1 mph - N/A   Clear
3:15 AM 40.5 °F 35.1 °F 22.3 °F 48% 30.10 in 10.0 mi SSW 8.1 mph - N/A   Clear
3:35 AM 39.7 °F 32.7 °F 22.8 °F 51% 30.09 in 10.0 mi SSW 11.5 mph - N/A   Clear
3:55 AM 39.4 °F 33.2 °F 23.0 °F 52% 30.08 in 10.0 mi South 9.2 mph - N/A   Clear
4:15 AM 38.8 °F 32.6 °F 23.2 °F 53% 30.07 in 10.0 mi South 9.2 mph - N/A   Clear
4:35 AM 38.8 °F 32.6 °F 23.9 °F 55% 30.05 in 10.0 mi South 9.2 mph - N/A   Clear
4:55 AM 38.8 °F 32.6 °F 23.9 °F 55% 30.06 in 10.0 mi South 9.2 mph - N/A   Clear
5:15 AM 39.2 °F 32.5 °F 24.3 °F 55% 30.06 in 10.0 mi South 10.4 mph 16.1 mph N/A   Clear
5:35 AM 39.2 °F 33.0 °F 24.4 °F 56% 30.05 in 10.0 mi South 9.2 mph - N/A   Clear
5:55 AM 39.4 °F 33.2 °F 24.8 °F 56% 30.05 in 10.0 mi South 9.2 mph - N/A   Clear
6:35 AM 39.7 °F 33.2 °F 24.6 °F 55% 30.05 in 10.0 mi SSW 10.4 mph - N/A   Clear
6:55 AM 37.6 °F 31.6 °F 25.3 °F 61% 30.03 in 10.0 mi South 8.1 mph - N/A   Scattered Clouds
7:15 AM 37.8 °F 31.3 °F 25.5 °F 61% 30.03 in 10.0 mi South 9.2 mph - N/A   Clear
7:35 AM 38.5 °F 32.1 °F 25.7 °F 60% 30.04 in 10.0 mi South 9.2 mph - N/A   Clear
7:55 AM 39.4 °F 33.2 °F 26.4 °F 60% 30.04 in 10.0 mi South 9.2 mph - N/A   Clear
8:15 AM 41.0 °F 34.7 °F 26.8 °F 57% 30.03 in 10.0 mi South 10.4 mph 16.1 mph N/A   Clear
8:35 AM 43.2 °F 35.6 °F 26.8 °F 52% 30.02 in 10.0 mi SSW 16.1 mph 23.0 mph N/A   Scattered Clouds
8:55 AM 43.5 °F 37.1 °F 27.9 °F 54% 30.01 in 10.0 mi SSW 12.7 mph 20.7 mph N/A Rain Light Rain
9:15 AM 42.8 °F 36.6 °F 30.4 °F 62% 30.00 in 10.0 mi South 11.5 mph - N/A   Scattered Clouds
9:35 AM 43.7 °F 39.7 °F 30.4 °F 59% 29.99 in 10.0 mi SSW 6.9 mph - N/A   Scattered Clouds
9:55 AM 44.1 °F 39.0 °F 31.8 °F 62% 29.99 in 10.0 mi SW 9.2 mph - N/A Rain Light Rain
10:35 AM 42.3 °F 37.3 °F 36.9 °F 81% 29.97 in 10.0 mi South 8.1 mph - 0.01 in Rain Rain
10:55 AM 42.3 °F 36.3 °F 37.4 °F 83% 29.95 in 10.0 mi South 10.4 mph - 0.02 in Rain Light Rain
11:15 AM 42.3 °F 36.3 °F 38.5 °F 86% 29.95 in 10.0 mi SSW 10.4 mph 16.1 mph 0.01 in Rain Light Rain
11:35 AM 42.6 °F 35.9 °F 39.4 °F 88% 29.93 in 10.0 mi South 12.7 mph 18.4 mph 0.01 in Rain Light Rain
11:55 AM 42.8 °F 38.0 °F 39.7 °F 89% 29.90 in 10.0 mi South 8.1 mph 17.3 mph 0.01 in   Light Drizzle
12:15 PM 43.0 °F 37.2 °F 40.3 °F 90% 29.89 in - SSW 10.4 mph - N/A   Unknown
12:35 PM 43.2 °F 37.9 °F 40.3 °F 90% 29.87 in 10.0 mi SSW 9.2 mph - N/A   Light Drizzle
12:55 PM 43.2 °F 37.4 °F 40.6 °F 91% 29.86 in 7.0 mi South 10.4 mph 16.1 mph N/A   Light Drizzle
1:15 PM 43.3 °F 37.7 °F 41.4 °F 93% 29.84 in 4.0 mi South 10.4 mph - N/A Rain Light Rain
1:35 PM 43.7 °F 38.6 °F 42.1 °F 94% 29.83 in 5.0 mi SSW 9.2 mph - N/A   Drizzle
1:55 PM 43.7 °F 38.1 °F 42.8 °F 97% 29.81 in 7.0 mi SSW 10.4 mph - N/A   Light Drizzle
2:15 PM 44.1 °F 39.5 °F 43.0 °F 96% 29.80 in 7.0 mi South 8.1 mph - N/A   Light Drizzle
2:35 PM 45.0 °F 38.9 °F 43.5 °F 95% 29.78 in 10.0 mi SSW 12.7 mph 17.3 mph N/A   Overcast
2:55 PM 45.7 °F 39.8 °F 43.7 °F 93% 29.78 in 10.0 mi SSW 12.7 mph 21.9 mph N/A   Overcast
3:15 PM 46.4 °F 40.1 °F 43.7 °F 90% 29.77 in 10.0 mi SSW 15.0 mph 24.2 mph N/A   Overcast
3:35 PM 46.6 °F - 43.3 °F 88% 29.76 in 10.0 mi SW 15.0 mph 21.9 mph N/A   Overcast
3:55 PM 47.3 °F - 43.2 °F 86% 29.76 in 10.0 mi SW 12.7 mph 19.6 mph N/A   Overcast
4:15 PM 47.3 °F - 43.2 °F 86% 29.75 in 10.0 mi SW 11.5 mph 21.9 mph N/A   Overcast
4:35 PM 47.7 °F - 43.2 °F 84% 29.76 in 10.0 mi SW 11.5 mph 16.1 mph N/A   Overcast
5:15 PM 47.3 °F - 42.4 °F 83% 29.78 in 10.0 mi WSW 10.4 mph - N/A   Mostly Cloudy
5:35 PM 46.9 °F - 42.3 °F 84% 29.79 in 10.0 mi WSW 8.1 mph 16.1 mph N/A   Mostly Cloudy
5:55 PM 46.9 °F - 42.1 °F 83% 29.78 in 10.0 mi SW 10.4 mph 16.1 mph N/A   Overcast
6:55 PM 46.4 °F 42.9 °F 41.2 °F 82% 29.80 in 10.0 mi WSW 6.9 mph - N/A   Scattered Clouds
7:15 PM 46.0 °F 41.4 °F 40.3 °F 80% 29.81 in 10.0 mi WSW 9.2 mph - N/A   Scattered Clouds
7:55 PM 45.5 °F 39.9 °F 37.2 °F 73% 29.82 in 10.0 mi West 11.5 mph - N/A   Clear
8:15 PM 45.1 °F 40.8 °F 36.0 °F 70% 29.83 in 10.0 mi West 8.1 mph - N/A   Clear
8:35 PM 44.1 °F 39.5 °F 36.0 °F 73% 29.83 in 10.0 mi West 8.1 mph - N/A   Clear
8:55 PM 42.8 °F 38.6 °F 35.2 °F 75% 29.84 in 10.0 mi West 6.9 mph - N/A   Clear
9:15 PM 42.1 °F 38.4 °F 34.7 °F 75% 29.85 in 10.0 mi West 5.8 mph - N/A   Clear
9:35 PM 43.3 °F 37.2 °F 29.1 °F 57% 29.85 in 10.0 mi WNW 11.5 mph 18.4 mph N/A   Clear
9:55 PM 43.7 °F 39.7 °F 26.2 °F 50% 29.85 in 10.0 mi West 6.9 mph - N/A   Clear
10:15 PM 42.8 °F 39.3 °F 26.1 °F 52% 29.85 in 10.0 mi WNW 5.8 mph - N/A   Clear
10:35 PM 40.6 °F - 26.8 °F 58% 29.85 in 10.0 mi Calm Calm - N/A   Clear
10:55 PM 36.1 °F 33.5 °F 28.9 °F 75% 29.86 in 10.0 mi WSW 3.5 mph - N/A   Clear
11:15 PM 35.4 °F 31.5 °F 27.3 °F 72% 29.86 in 10.0 mi WSW 4.6 mph - N/A   Clear
11:35 PM 37.8 °F 33.3 °F 25.9 °F 62% 29.86 in 10.0 mi WSW 5.8 mph - N/A   Clear
11:55 PM 37.4 °F 32.8 °F 25.9 °F 63% 29.87 in 10.0 mi West 5.8 mph - N/A   Clear